Weather History for KLRF - June, 2013

Change the Weather History Date:

Thursday, June 27, 2013

  Actual Average Record
Temperature  
Mean Temperature 88 °F -  
Max Temperature 101 °F 88 °F 101 °F (2013)
Min Temperature 74 °F 67 °F 52 °F (1968)
Cooling Degree Days 22    
Growing Degree Days 38 (Base 50)    
Moisture  
Dew Point 71 °F    
Average Humidity 60    
Maximum Humidity 88    
Minimum Humidity 37    
Precipitation  
Precipitation 0.00 in - - ()
Sea Level Pressure  
Sea Level Pressure 29.92 in    
Wind  
Wind Speed 5 mph (WSW)    
Max Wind Speed 10 mph    
Max Gust Speed -    
Visibility 10 miles    
Events      
Averages and records for this station are not official NWS values.
T = Trace of Precipitation, MM = Missing Value Source: NWS Daily Summary

Daily Weather History Graph

Daily Weather History Graph

Search for Another Location

Airport or City:

Trip Planner

Search our weather history database for the weather conditions in past years. The results will help you decide how hot, cold, wet, or windy it might be!

Date:

Astronomy

Jun. 27, 2013 Rise Set
Actual Time 5:57 AM CDT 8:26 PM CDT
Civil Twilight 5:27 AM CDT 8:55 PM CDT
Nautical Twilight 4:50 AM CDT 9:32 PM CDT
Astronomical Twilight 4:10 AM CDT 10:12 PM CDT
Moon 11:37 PM CDT (6/27) 10:46 AM CDT (6/27)
Length of Visible Light 15h 28m
Length of Day
14h 29m
Waning Gibbous, 76% of the Moon is Illuminated
Jun 27
Waning Gibbous
Jun 29
Last Quarter
Jul 8
New
Jul 15
First Quarter
Jul 22
Full

Hourly Weather History & Observations

Time (CDT) Temp. Heat Index Dew Point Humidity Pressure Visibility Wind Dir Wind Speed Gust Speed Precip Events Conditions
12:58 AM 81.9 °F 86.0 °F 70.7 °F 69% 29.92 in 10.0 mi WSW 5.8 mph - N/A   Clear
1:58 AM 80.6 °F 84.2 °F 70.9 °F 72% 29.93 in 10.0 mi West 2.3 mph - N/A   Scattered Clouds
2:58 AM 79.3 °F - 71.1 °F 76% 29.92 in 10.0 mi West 4.6 mph - N/A   Clear
3:58 AM 76.8 °F - 71.1 °F 82% 29.93 in 10.0 mi Calm Calm - N/A   Clear
4:58 AM 74.8 °F - 71.1 °F 88% 29.93 in 10.0 mi Calm Calm - N/A   Clear
5:58 AM 75.7 °F - 71.1 °F 85% 29.94 in 10.0 mi WSW 4.6 mph - N/A   Clear
6:58 AM 76.6 °F - 71.8 °F 85% 29.94 in 10.0 mi West 2.3 mph - N/A   Clear
7:58 AM 81.0 °F 85.2 °F 72.1 °F 74% 29.95 in 10.0 mi WSW 4.6 mph - N/A   Clear
8:58 AM 85.5 °F 92.2 °F 73.0 °F 66% 29.96 in 10.0 mi WSW 10.4 mph - N/A   Clear
9:58 AM 88.9 °F 97.1 °F 73.4 °F 60% 29.95 in 10.0 mi WSW 9.2 mph - N/A   Clear
10:58 AM 91.6 °F 101.7 °F 74.3 °F 57% 29.95 in 10.0 mi West 8.1 mph - N/A   Clear
11:58 AM 94.1 °F 103.8 °F 73.6 °F 51% 29.94 in 10.0 mi West 10.4 mph - N/A   Partly Cloudy
12:58 PM 96.6 °F 106.9 °F 73.4 °F 47% 29.94 in 10.0 mi West 8.1 mph - N/A   Partly Cloudy
1:58 PM 98.4 °F 108.0 °F 72.7 °F 43% 29.93 in 10.0 mi West 10.4 mph - N/A   Partly Cloudy
2:58 PM 99.1 °F 108.9 °F 72.3 °F 42% 29.91 in 10.0 mi West 9.2 mph - N/A   Clear
3:58 PM 100.9 °F 110.6 °F 72.1 °F 39% 29.90 in 10.0 mi West 8.1 mph - N/A   Clear
4:58 PM 101.1 °F 109.3 °F 70.7 °F 37% 29.88 in 10.0 mi West 10.4 mph - N/A   Clear
5:58 PM 99.9 °F 108.9 °F 71.6 °F 40% 29.86 in 10.0 mi West 6.9 mph - N/A   Clear
6:58 PM 99.5 °F 108.9 °F 72.3 °F 41% 29.86 in 10.0 mi West 5.8 mph - N/A   Clear
7:58 PM 94.8 °F 106.9 °F 75.2 °F 53% 29.87 in 10.0 mi East 3.5 mph - N/A   Clear
8:58 PM 86.0 °F 88.2 °F 66.2 °F 51% 29.89 in 10.0 mi East 8.1 mph - N/A   Partly Cloudy
9:58 PM 83.5 °F 85.7 °F 66.2 °F 56% 29.89 in 10.0 mi South 1.2 mph - N/A   Clear
10:58 PM 83.7 °F 87.2 °F 68.7 °F 61% 29.90 in 10.0 mi SSW 6.9 mph - N/A   Overcast
11:58 PM 83.3 °F 87.4 °F 70.2 °F 64% 29.89 in 10.0 mi South 4.6 mph - N/A   Overcast